When you browse on this site, cookies collect data to enhance your experience and personalize the content and advertising you see.
Visit our Privacy Policy to learn more. By continuing to use the site, you agree to this use of cookies and data.
  • In Österreich
  • Länderverzeichnis
  • Für 7 Tage
  • Wassertemperatur
  • Satellitenkarten
  • Wetterkarte
  • News
  • Widgets
  • user-avatar
    Anmelden

    Stündliche Wetter Hrasdan

    Heute, 26 Juni, Mittwoch

    Zeit Temperatur Niederschläge Wind Luftdruck Luftfeuchtigkeit
    00:00 +16°C° 0 mm 2 m/S 615 mmHg 81%
    01:00 +16°C° 0 mm 2 m/S 615 mmHg 81%
    02:00 +15°C° 0 mm 2 m/S 615 mmHg 80%
    03:00 +15°C° 0 mm 2 m/S 615 mmHg 80%
    04:00 +16°C° 0 mm 2 m/S 615 mmHg 80%
    05:00 +18°C° 0 mm 1 m/S 616 mmHg 80%
    06:00 +18°C° 0 mm 1 m/S 616 mmHg 80%
    07:00 +19°C° 0 mm 2 m/S 617 mmHg 75%
    08:00 +21°C° 0 mm 2 m/S 617 mmHg 69%
    09:00 +23°C° 0 mm 2 m/S 617 mmHg 64%
    10:00 +24°C° 0.5 mm 2 m/S 617 mmHg 61%
    11:00 +25°C° 0.5 mm 2 m/S 618 mmHg 59%
    12:00 +26°C° 0.5 mm 2 m/S 618 mmHg 57%
    13:00 +26°C° 0.5 mm 2 m/S 617 mmHg 57%
    14:00 +26°C° 0.5 mm 2 m/S 617 mmHg 57%
    15:00 +26°C° 0.5 mm 2 m/S 617 mmHg 57%
    16:00 +25°C° 0.5 mm 2 m/S 616 mmHg 62%
    17:00 +24°C° 0.5 mm 2 m/S 616 mmHg 67%
    18:00 +23°C° 0.5 mm 2 m/S 615 mmHg 72%
    19:00 +20°C° 0.4 mm 2 m/S 615 mmHg 75%
    20:00 +18°C° 0.4 mm 2 m/S 614 mmHg 79%
    21:00 +17°C° 0.4 mm 2 m/S 614 mmHg 82%
    22:00 +16°C° 0.2 mm 2 m/S 614 mmHg 82%
    23:00 +16°C° 0.2 mm 2 m/S 614 mmHg 82%

    Morgen, 27 Juni, Donnerstag

    Zeit Temperatur Niederschläge Wind Luftdruck Luftfeuchtigkeit
    00:00 +16°C° 0.2 mm 2 m/S 614 mmHg 82%
    01:00 +15°C° 0.2 mm 2 m/S 614 mmHg 82%
    02:00 +15°C° 0.2 mm 1 m/S 613 mmHg 83%
    03:00 +15°C° 0.2 mm 1 m/S 613 mmHg 83%
    04:00 +15°C° 0.1 mm 1 m/S 613 mmHg 82%
    05:00 +16°C° 0.1 mm 1 m/S 613 mmHg 82%
    06:00 +16°C° 0.1 mm 1 m/S 614 mmHg 82%
    07:00 +18°C° 0.1 mm 2 m/S 614 mmHg 78%
    08:00 +19°C° 0.1 mm 2 m/S 614 mmHg 74%
    09:00 +21°C° 0.1 mm 2 m/S 615 mmHg 70%
    10:00 +21°C° 0.5 mm 2 m/S 614 mmHg 69%
    11:00 +23°C° 0.5 mm 2 m/S 614 mmHg 67%
    12:00 +24°C° 0.5 mm 2 m/S 614 mmHg 65%
    13:00 +24°C° 0.5 mm 2 m/S 614 mmHg 66%
    14:00 +24°C° 0.5 mm 3 m/S 613 mmHg 67%
    15:00 +24°C° 0.5 mm 3 m/S 613 mmHg 68%
    16:00 +22°C° 0.7 mm 3 m/S 613 mmHg 72%
    17:00 +21°C° 0.7 mm 3 m/S 612 mmHg 75%
    18:00 +20°C° 0.7 mm 3 m/S 612 mmHg 79%
    19:00 +19°C° 0.9 mm 2 m/S 612 mmHg 82%
    20:00 +17°C° 0.9 mm 2 m/S 612 mmHg 84%
    21:00 +16°C° 0.9 mm 2 m/S 611 mmHg 87%
    22:00 +15°C° 0.2 mm 1 m/S 611 mmHg 87%
    23:00 +15°C° 0.2 mm 1 m/S 611 mmHg 87%

    übermorgen, 28 Juni, Freitag

    Zeit Temperatur Niederschläge Wind Luftdruck Luftfeuchtigkeit
    00:00 +15°C° 0.2 mm 1 m/S 611 mmHg 87%
    01:00 +15°C° 0.1 mm 1 m/S 610 mmHg 87%
    02:00 +15°C° 0.1 mm 1 m/S 610 mmHg 87%
    03:00 +14°C° 0.1 mm 1 m/S 610 mmHg 88%
    04:00 +15°C° 0 mm 1 m/S 610 mmHg 87%
    05:00 +15°C° 0 mm 1 m/S 610 mmHg 87%
    06:00 +16°C° 0 mm 1 m/S 610 mmHg 87%
    07:00 +18°C° 0.4 mm 1 m/S 610 mmHg 84%
    08:00 +18°C° 0.4 mm 2 m/S 610 mmHg 80%
    09:00 +19°C° 0.4 mm 2 m/S 610 mmHg 77%
    10:00 +20°C° 1.1 mm 2 m/S 610 mmHg 73%
    11:00 +21°C° 1.1 mm 2 m/S 610 mmHg 69%
    12:00 +23°C° 1.1 mm 2 m/S 610 mmHg 64%
    13:00 +23°C° 0.9 mm 2 m/S 610 mmHg 65%
    14:00 +23°C° 0.9 mm 2 m/S 609 mmHg 66%
    15:00 +23°C° 0.9 mm 2 m/S 609 mmHg 67%
    16:00 +21°C° 1.8 mm 2 m/S 608 mmHg 72%
    17:00 +19°C° 1.8 mm 3 m/S 608 mmHg 77%
    18:00 +18°C° 1.8 mm 3 m/S 608 mmHg 82%
    19:00 +17°C° 1 mm 2 m/S 608 mmHg 83%
    20:00 +16°C° 1 mm 2 m/S 608 mmHg 84%
    21:00 +15°C° 1 mm 1 m/S 608 mmHg 84%
    22:00 +15°C° 0 mm 1 m/S 608 mmHg 83%
    23:00 +14°C° 0 mm 1 m/S 608 mmHg 82%

    29 Juni, Samstag

    Zeit Temperatur Niederschläge Wind Luftdruck Luftfeuchtigkeit
    00:00 +14°C° 0 mm 1 m/S 607 mmHg 81%
    01:00 +14°C° 0 mm 1 m/S 607 mmHg 81%
    02:00 +13°C° 0 mm 1 m/S 607 mmHg 80%
    03:00 +13°C° 0 mm 1 m/S 607 mmHg 80%
    04:00 +14°C° 0 mm 1 m/S 607 mmHg 80%
    05:00 +15°C° 0 mm 1 m/S 607 mmHg 80%
    06:00 +15°C° 0 mm 1 m/S 607 mmHg 80%
    07:00 +18°C° 0.3 mm 1 m/S 608 mmHg 76%
    08:00 +19°C° 0.3 mm 1 m/S 608 mmHg 72%
    09:00 +21°C° 0.3 mm 1 m/S 608 mmHg 68%
    10:00 +21°C° 1.5 mm 1 m/S 609 mmHg 66%
    11:00 +21°C° 1.5 mm 2 m/S 609 mmHg 65%
    12:00 +23°C° 1.5 mm 2 m/S 609 mmHg 63%
    13:00 +23°C° 1.3 mm 2 m/S 609 mmHg 63%
    14:00 +23°C° 1.3 mm 2 m/S 609 mmHg 63%
    15:00 +23°C° 1.3 mm 2 m/S 608 mmHg 63%
    16:00 +20°C° 2.5 mm 2 m/S 608 mmHg 72%
    17:00 +18°C° 2.5 mm 2 m/S 607 mmHg 81%
    18:00 +15°C° 2.5 mm 1 m/S 607 mmHg 91%
    19:00 +15°C° 0.5 mm 1 m/S 607 mmHg 90%
    20:00 +15°C° 0.5 mm 1 m/S 608 mmHg 89%
    21:00 +14°C° 0.5 mm 1 m/S 608 mmHg 89%
    22:00 +14°C° 0.1 mm 1 m/S 608 mmHg 89%
    23:00 +14°C° 0.1 mm 1 m/S 608 mmHg 89%

    30 Juni, Sonntag

    Zeit Temperatur Niederschläge Wind Luftdruck Luftfeuchtigkeit
    00:00 +13°C° 0.1 mm 1 m/S 608 mmHg 89%
    01:00 +13°C° 0.1 mm 1 m/S 608 mmHg 89%
    02:00 +13°C° 0.1 mm 1 m/S 608 mmHg 89%
    03:00 +12°C° 0.1 mm 1 m/S 608 mmHg 89%
    04:00 +13°C° 0 mm 1 m/S 608 mmHg 88%
    05:00 +13°C° 0 mm 1 m/S 608 mmHg 88%
    06:00 +14°C° 0 mm 1 m/S 608 mmHg 88%
    07:00 +15°C° 0.3 mm 1 m/S 609 mmHg 84%
    08:00 +16°C° 0.3 mm 2 m/S 609 mmHg 81%
    09:00 +18°C° 0.3 mm 2 m/S 610 mmHg 77%
    10:00 +18°C° 1.1 mm 2 m/S 610 mmHg 75%
    11:00 +19°C° 1.1 mm 2 m/S 610 mmHg 73%
    12:00 +20°C° 1.1 mm 2 m/S 610 mmHg 72%
    13:00 +20°C° 1.6 mm 2 m/S 609 mmHg 72%
    14:00 +20°C° 1.6 mm 2 m/S 609 mmHg 72%
    15:00 +20°C° 1.6 mm 2 m/S 609 mmHg 72%
    16:00 +19°C° 1.6 mm 2 m/S 609 mmHg 77%
    17:00 +17°C° 1.6 mm 3 m/S 609 mmHg 81%
    18:00 +16°C° 1.6 mm 3 m/S 608 mmHg 86%
    19:00 +14°C° 1.7 mm 3 m/S 608 mmHg 89%
    20:00 +13°C° 1.7 mm 3 m/S 608 mmHg 91%
    21:00 +12°C° 1.7 mm 3 m/S 608 mmHg 94%
    22:00 +11°C° 0.5 mm 3 m/S 608 mmHg 94%
    23:00 +12°C° 0.5 mm 2 m/S 608 mmHg 94%

    1 Juli, Montag

    Zeit Temperatur Niederschläge Wind Luftdruck Luftfeuchtigkeit
    00:00 +12°C° 0.5 mm 2 m/S 608 mmHg 94%
    01:00 +12°C° 0.2 mm 2 m/S 608 mmHg 93%
    02:00 +10°C° 0.2 mm 2 m/S 608 mmHg 91%
    03:00 +11°C° 0.2 mm 1 m/S 608 mmHg 90%
    04:00 +11°C° 0.1 mm 1 m/S 608 mmHg 89%
    05:00 +11°C° 0.1 mm 1 m/S 608 mmHg 87%
    06:00 +10°C° 0.1 mm 2 m/S 608 mmHg 85%
    07:00 +12°C° 0.2 mm 2 m/S 608 mmHg 83%
    08:00 +13°C° 0.2 mm 2 m/S 608 mmHg 80%
    09:00 +14°C° 0.2 mm 2 m/S 609 mmHg 77%
    10:00 +15°C° 0.5 mm 2 m/S 609 mmHg 76%
    11:00 +15°C° 0.5 mm 2 m/S 609 mmHg 75%
    12:00 +16°C° 0.5 mm 2 m/S 609 mmHg 74%
    13:00 +16°C° 1.1 mm 2 m/S 609 mmHg 75%
    14:00 +15°C° 1.1 mm 2 m/S 609 mmHg 76%
    15:00 +15°C° 1.1 mm 2 m/S 609 mmHg 77%
    16:00 +14°C° 1 mm 2 m/S 609 mmHg 80%
    17:00 +12°C° 1 mm 3 m/S 609 mmHg 82%
    18:00 +12°C° 1 mm 3 m/S 609 mmHg 85%
    19:00 +11°C° 0.3 mm 3 m/S 609 mmHg 87%
    20:00 +10°C° 0.3 mm 2 m/S 609 mmHg 89%
    21:00 +9°C° 0.3 mm 2 m/S 610 mmHg 91%
    22:00 +8°C° 0.1 mm 2 m/S 610 mmHg 91%
    23:00 +8°C° 0.1 mm 2 m/S 610 mmHg 90%
    Mehr zeigen